Location: Gerlach
(40.6516°N, 119.3568°W)
Time: 14:25:38
(UTC-07:00)

A-11 Canister half - Pass Details

Date: 23 February 2024
Orbit: 1525 x 1683 km, 47.3° (Epoch: 21 April)

Event Time Altitude Azimuth Distance (km) Brightness Sun altitude
Exits shadow 03:43:29 60° 184° (S) 1,721 9.0 -34.1°
Drops below altitude 10° 03:51:35 10° 139° (SE) 3,738 11.3 -32.6°
Sets 03:54:42 0° 136° (SE) 4,739 11.9 -32.0°
